Вернуться в каталог

STARLINK-31757

АктивенСвязьVLEO
NORAD 59427·PAYLOAD·🇺🇸 United States

Запущен Apr 7, 2024 с Vandenberg Space Force Base

Loading…

Ближайшие Пролёты (ближайшие 24 часа)

TLE

СвежийSource: CelesTrak SupGP

Эпоха: Sep 15, 2026, 02:17 UTC

1 59427C 24065G   26258.09562500  .00035091  00000+0  10368-2 0  2589
2 59427  53.1567 118.7053 0001242  80.7951 278.4092 15.34373520    16

Отслеживайте STARLINK-31757 в реальном времени с AllMySat

Download on the App Store